Weather History for Needles, CA

Change the Weather History Date:

Wednesday, August 22, 2012

  Actual Average Record
Temperature  
Mean Temperature 86 °F -  
Max Temperature 99 °F 104 °F 114 °F (2011)
Min Temperature 75 °F 80 °F 69 °F (1968)
Cooling Degree Days 22    
Growing Degree Days 36 (Base 50)    
Moisture  
Dew Point 68 °F    
Average Humidity 65    
Maximum Humidity 94    
Minimum Humidity 31    
Precipitation  
Precipitation 0.18 in - - ()
Sea Level Pressure  
Sea Level Pressure 29.81 in    
Wind  
Wind Speed 10 mph (North)    
Max Wind Speed 31 mph    
Max Gust Speed 39 mph    
Visibility 10 miles    
Events Rain , Thunderstorm    
Averages and records for this station are not official NWS values.
T = Trace of Precipitation, MM = Missing Value Source: NWS Daily Summary

Daily Weather History Graph

Daily Weather History Graph

Search for Another Location

Airport:

Trip Planner

Search our weather history database for the weather conditions in past years. The results will help you decide how hot, cold, wet, or windy it might be!

Date:

Astronomy

Aug. 22, 2012 Rise Set
Actual Time 6:04 AM PDT 7:17 PM PDT
Civil Twilight 5:38 AM PDT 7:43 PM PDT
Nautical Twilight 5:06 AM PDT 8:14 PM PDT
Astronomical Twilight 4:34 AM PDT 8:47 PM PDT
Moon 11:31 AM PDT (8/22) 10:19 PM PDT (8/22)
Length of Visible Light 14h 05m
Length of Day
13h 12m
Waxing Crescent, 30% of the Moon is Illuminated
Aug 22
Waxing Crescent
Aug 24
First Quarter
Aug 31
Full
Sep 8
Last Quarter
Sep 15
New

Hourly Weather History & Observations

Time (PDT) Temp. Heat Index Dew Point Humidity Pressure Visibility Wind Dir Wind Speed Gust Speed Precip Events Conditions
12:56 AM 90.0 °F 91.3 °F 64.0 °F 42% 29.73 in 10.0 mi South 6.9 mph - N/A   Clear
1:56 AM 89.1 °F 91.0 °F 64.9 °F 45% 29.73 in 10.0 mi SSE 10.4 mph - N/A   Scattered Clouds
2:56 AM 88.0 °F 90.3 °F 66.0 °F 48% 29.73 in 10.0 mi South 8.1 mph - N/A   Overcast
3:56 AM 84.9 °F 87.6 °F 66.9 °F 55% 29.73 in 10.0 mi WSW 10.4 mph - N/A   Overcast
5:56 AM 84.9 °F 87.6 °F 66.9 °F 55% 29.75 in 10.0 mi WSW 6.9 mph - N/A   Clear
6:56 AM 84.9 °F 87.6 °F 66.9 °F 55% 29.76 in 10.0 mi WSW 4.6 mph - N/A   Clear
7:56 AM 87.1 °F 89.9 °F 66.9 °F 51% 29.78 in 10.0 mi SSW 4.6 mph - N/A   Mostly Cloudy
9:56 AM 91.9 °F 94.1 °F 64.9 °F 41% 29.77 in 10.0 mi ESE 8.1 mph - N/A   Mostly Cloudy
10:56 AM 95.0 °F 97.0 °F 64.0 °F 36% 29.76 in 10.0 mi ESE 11.5 mph 16.1 mph N/A   Partly Cloudy
11:56 AM 98.1 °F 99.6 °F 63.0 °F 31% 29.74 in 10.0 mi SE 10.4 mph 16.1 mph N/A   Mostly Cloudy
12:56 PM 97.0 °F 98.3 °F 63.0 °F 32% 29.73 in 10.0 mi Variable 4.6 mph - N/A   Mostly Cloudy
1:48 PM 87.8 °F 90.4 °F 66.2 °F 49% 29.85 in 8.0 mi North 21.9 mph 36.8 mph N/A   Squalls
1:56 PM 86.0 °F 88.8 °F 66.9 °F 53% 29.76 in 10.0 mi NNW 31.1 mph 39.1 mph N/A   Overcast
2:03 PM 84.2 °F 86.6 °F 66.2 °F 55% 29.85 in 10.0 mi NNW 25.3 mph 38.0 mph N/A   Mostly Cloudy
2:22 PM 82.4 °F 84.6 °F 66.2 °F 58% 29.87 in 10.0 mi North 21.9 mph 31.1 mph 0.00 in Rain , Thunderstorm Light Rain
3:30 PM 75.2 °F - 73.4 °F 94% 29.92 in 10.0 mi North 16.1 mph - 0.08 in Rain Light Rain
3:37 PM 75.2 °F - 73.4 °F 94% 29.92 in 10.0 mi NNE 17.3 mph - 0.08 in Rain Light Rain
3:56 PM 75.0 °F - 72.0 °F 90% 29.84 in 10.0 mi NNE 13.8 mph - 0.08 in   Overcast
4:09 PM 75.2 °F - 71.6 °F 89% 29.93 in 10.0 mi NNE 11.5 mph - N/A   Overcast
4:56 PM 75.9 °F - 71.1 °F 85% 29.83 in 10.0 mi North 13.8 mph - 0.02 in   Mostly Cloudy
5:56 PM 75.9 °F - 70.0 °F 82% 29.82 in 10.0 mi North 11.5 mph 21.9 mph N/A   Overcast
6:45 PM 75.2 °F - 71.6 °F 89% 29.89 in 6.0 mi Calm Calm - 0.04 in Rain , Thunderstorm Rain
6:56 PM 75.9 °F - 70.0 °F 82% 29.80 in 5.0 mi Calm Calm - 0.05 in Rain Light Rain
7:56 PM 75.9 °F - 70.0 °F 82% 29.80 in 10.0 mi Calm Calm - 0.03 in Rain Light Rain
9:56 PM 77.0 °F - 71.1 °F 82% 29.83 in 10.0 mi NW 3.5 mph - N/A   Clear
10:56 PM 75.9 °F - 71.1 °F 85% 29.83 in 10.0 mi NNW 5.8 mph - N/A   Clear
11:56 PM 75.9 °F - 70.0 °F 82% 29.82 in 10.0 mi North 5.8 mph - N/A   Clear